THY2261 LTFD-LTFM

Flight info

Callsign THY2261
Flight time N/A
Altitude 23000
Route DUGLA Z713 INBET
Aircraft A20N/M-SDE2E3FGHIRWXY/LB1

Departure

Time 2026-04-17 13:19
Airport Balıkesir Koca Seyit Airport (LTFD)

Arrival

Time N/A
Airport İstanbul Airport (LTFM)
Time Latitude Longitude Altitude Speed Heading
2026-04-17 13:00 39.54901 27.01121 50 ft 0 kts 144°
2026-04-17 13:06 39.54904 27.01118 50 ft 1 kts 144°
2026-04-17 13:06 39.54911 27.01112 50 ft 1 kts 144°
2026-04-17 13:07 39.54917 27.01106 50 ft 1 kts 144°
2026-04-17 13:07 39.54924 27.01100 49 ft 1 kts 139°
2026-04-17 13:07 39.54930 27.01093 48 ft 1 kts 129°
2026-04-17 13:07 39.54934 27.01085 47 ft 1 kts 122°
2026-04-17 13:08 39.54939 27.01077 50 ft 1 kts 116°
2026-04-17 13:08 39.54942 27.01067 50 ft 1 kts 105°
2026-04-17 13:08 39.54944 27.01057 50 ft 1 kts 90°
2026-04-17 13:08 39.54944 27.01047 50 ft 1 kts 75°
2026-04-17 13:09 39.54941 27.01037 49 ft 1 kts 64°
2026-04-17 13:09 39.54940 27.01034 48 ft 0 kts 64°
2026-04-17 13:12 39.54953 27.01069 47 ft 4 kts 64°
2026-04-17 13:12 39.54980 27.01097 50 ft 6 kts
2026-04-17 13:13 39.55026 27.01071 50 ft 9 kts 327°
2026-04-17 13:13 39.55081 27.01024 48 ft 10 kts 323°
2026-04-17 13:13 39.55145 27.00963 48 ft 10 kts 325°
2026-04-17 13:13 39.55161 27.00885 47 ft 12 kts 238°
2026-04-17 13:14 39.55104 27.00784 47 ft 16 kts 233°
2026-04-17 13:14 39.55033 27.00656 45 ft 20 kts 234°
2026-04-17 13:14 39.54943 27.00497 47 ft 23 kts 232°
2026-04-17 13:14 39.54842 27.00321 47 ft 24 kts 234°
2026-04-17 13:15 39.54767 27.00189 48 ft 19 kts 233°
2026-04-17 13:15 39.54697 27.00062 45 ft 20 kts 233°
2026-04-17 13:15 39.54606 26.99904 44 ft 24 kts 232°
2026-04-17 13:15 39.54559 26.99822 42 ft 2 kts 234°
2026-04-17 13:16 39.54541 26.99790 41 ft 7 kts 235°
2026-04-17 13:16 39.54501 26.99727 41 ft 10 kts 217°
2026-04-17 13:16 39.54448 26.99712 41 ft 5 kts 186°
2026-04-17 13:16 39.54423 26.99696 41 ft 5 kts 218°
2026-04-17 13:17 39.54407 26.99654 41 ft 6 kts 267°
2026-04-17 13:17 39.54417 26.99628 42 ft 3 kts 309°
2026-04-17 13:17 39.54438 26.99622 42 ft 4 kts 10°
2026-04-17 13:17 39.54458 26.99650 42 ft 4 kts 70°
2026-04-17 13:18 39.54460 26.99660 42 ft 0 kts 70°
2026-04-17 13:18 39.54461 26.99661 42 ft 0 kts 57°
2026-04-17 13:18 39.54463 26.99663 42 ft 2 kts 50°
2026-04-17 13:18 39.54469 26.99674 41 ft 2 kts 53°
2026-04-17 13:19 39.54534 26.99786 41 ft 45 kts 53°
2026-04-17 13:19 39.54859 27.00343 47 ft 104 kts 53°
2026-04-17 13:19 39.55375 27.01270 104 ft 143 kts 54°
2026-04-17 13:19 39.55943 27.02249 746 ft 132 kts 57°
2026-04-17 13:20 39.56527 27.03224 1247 ft 141 kts 56°
2026-04-17 13:20 39.57169 27.04255 1863 ft 152 kts 52°
2026-04-17 13:20 39.57864 27.05356 2349 ft 167 kts 51°
2026-04-17 13:20 39.58618 27.06626 2644 ft 189 kts 52°
2026-04-17 13:21 39.59432 27.08069 3038 ft 206 kts 53°
2026-04-17 13:21 39.60286 27.09618 3557 ft 217 kts 54°
2026-04-17 13:21 39.61166 27.11226 4307 ft 221 kts 54°
2026-04-17 13:21 39.62066 27.12866 5163 ft 225 kts 55°
2026-04-17 13:22 39.62981 27.14535 6088 ft 229 kts 56°
2026-04-17 13:22 39.63920 27.16240 7021 ft 235 kts 57°
2026-04-17 13:22 39.64866 27.17973 7901 ft 241 kts 56°
2026-04-17 13:22 39.65645 27.19924 8781 ft 246 kts 77°
2026-04-17 13:23 39.65682 27.22154 9651 ft 253 kts 103°
2026-04-17 13:23 39.64916 27.24193 10428 ft 261 kts 129°
2026-04-17 13:23 39.63481 27.25725 11274 ft 269 kts 143°
2026-04-17 13:23 39.61906 27.27172 11683 ft 292 kts 143°
2026-04-17 13:24 39.60150 27.28668 12025 ft 317 kts 152°
2026-04-17 13:24 39.57937 27.29525 12351 ft 342 kts 173°
2026-04-17 13:24 39.55520 27.29257 13031 ft 355 kts 194°
2026-04-17 13:24 39.53283 27.27853 13848 ft 362 kts 215°
2026-04-17 13:25 39.51528 27.25536 14554 ft 370 kts 231°
2026-04-17 13:25 39.50232 27.22613 15226 ft 377 kts 250°
2026-04-17 13:25 39.49749 27.19265 15955 ft 381 kts 270°
2026-04-17 13:25 39.50131 27.15874 16660 ft 384 kts 290°
2026-04-17 13:26 39.51341 27.12798 17377 ft 384 kts 309°
2026-04-17 13:26 39.52533 27.11109 17879 ft 382 kts 322°
2026-04-17 13:26 39.54762 27.09282 18537 ft 379 kts 340°
2026-04-17 13:26 39.58164 27.08421 19356 ft 378 kts
2026-04-17 13:27 39.60753 27.09018 19943 ft 378 kts 21°
2026-04-17 13:27 39.62354 27.09997 20352 ft 379 kts 33°
2026-04-17 13:27 39.64469 27.12037 20938 ft 383 kts 41°
2026-04-17 13:27 39.66453 27.14281 21533 ft 387 kts 42°
2026-04-17 13:28 39.68426 27.16582 22118 ft 390 kts 42°
2026-04-17 13:28 39.70629 27.18678 22499 ft 395 kts 30°
2026-04-17 13:28 39.73190 27.19984 22639 ft 397 kts 14°
2026-04-17 13:28 39.75880 27.20505 22760 ft 400 kts
2026-04-17 13:29 39.78711 27.20575 22854 ft 402 kts
2026-04-17 13:29 39.81518 27.20431 22871 ft 402 kts 358°
2026-04-17 13:29 39.84312 27.20218 22888 ft 402 kts 358°
2026-04-17 13:29 39.87103 27.19999 22898 ft 403 kts 358°
2026-04-17 13:30 39.89880 27.19791 22900 ft 403 kts 358°
2026-04-17 13:30 39.92678 27.19593 22902 ft 403 kts 358°
2026-04-17 13:30 39.95491 27.19429 22909 ft 403 kts
2026-04-17 13:30 39.98292 27.19646 22911 ft 402 kts
2026-04-17 13:31 40.01035 27.20325 22919 ft 402 kts 15°
2026-04-17 13:31 40.03673 27.21376 22919 ft 402 kts 18°
2026-04-17 13:31 40.06347 27.22480 22916 ft 403 kts 18°
2026-04-17 13:31 40.09025 27.23570 22924 ft 402 kts 18°
2026-04-17 13:32 40.11701 27.24660 22921 ft 403 kts 18°
2026-04-17 13:32 40.14361 27.25746 22926 ft 403 kts 18°
2026-04-17 13:32 40.17043 27.26810 22924 ft 403 kts 14°
2026-04-17 13:32 40.19810 27.27509 22918 ft 404 kts
2026-04-17 13:33 40.22613 27.27768 22920 ft 405 kts
2026-04-17 13:33 40.25429 27.27945 22919 ft 405 kts
2026-04-17 13:33 40.28263 27.28140 22922 ft 405 kts
2026-04-17 13:33 40.31038 27.28336 22928 ft 405 kts
2026-04-17 13:34 40.33888 27.28535 22922 ft 405 kts
2026-04-17 13:34 40.36715 27.28731 22919 ft 405 kts
2026-04-17 13:34 40.39527 27.28926 22928 ft 406 kts
2026-04-17 13:34 40.42294 27.29116 22929 ft 406 kts
2026-04-17 13:35 40.45152 27.29313 22930 ft 406 kts
2026-04-17 13:35 40.47967 27.29507 22923 ft 406 kts
2026-04-17 13:35 40.50807 27.29702 22919 ft 407 kts
2026-04-17 13:35 40.53632 27.29896 22930 ft 407 kts
2026-04-17 13:36 40.56458 27.30090 22923 ft 407 kts
2026-04-17 13:36 40.59293 27.30285 22920 ft 407 kts
2026-04-17 13:36 40.62098 27.30478 22925 ft 408 kts
2026-04-17 13:36 40.64921 27.30672 22923 ft 408 kts
2026-04-17 13:37 40.67766 27.30868 22916 ft 408 kts
2026-04-17 13:37 40.70596 27.31064 22912 ft 407 kts
2026-04-17 13:37 40.73381 27.31473 22850 ft 400 kts
2026-04-17 13:37 40.76081 27.32385 22416 ft 398 kts 19°
2026-04-17 13:38 40.78552 27.34062 21515 ft 405 kts 35°
2026-04-17 13:38 40.80635 27.36614 20458 ft 414 kts 50°
2026-04-17 13:38 40.82150 27.39881 19530 ft 420 kts 66°
2026-04-17 13:38 40.82987 27.43521 18851 ft 418 kts 78°
2026-04-17 13:39 40.83485 27.47284 18266 ft 414 kts 81°
2026-04-17 13:39 40.83937 27.51035 17588 ft 410 kts 81°
2026-04-17 13:39 40.84426 27.54719 16942 ft 405 kts 79°
2026-04-17 13:39 40.84959 27.58354 16280 ft 401 kts 78°
2026-04-17 13:40 40.85519 27.61952 15646 ft 397 kts 78°
2026-04-17 13:40 40.86079 27.65464 15034 ft 393 kts 78°
2026-04-17 13:40 40.86646 27.68989 14409 ft 390 kts 78°
2026-04-17 13:40 40.87209 27.72489 13795 ft 387 kts 78°
2026-04-17 13:41 40.87765 27.75964 13168 ft 384 kts 78°
2026-04-17 13:41 40.88310 27.79376 12684 ft 376 kts 78°
2026-04-17 13:41 40.88844 27.82737 12163 ft 369 kts 78°
2026-04-17 13:41 40.89366 27.86026 11658 ft 363 kts 78°
2026-04-17 13:42 40.89875 27.89242 11153 ft 358 kts 78°
2026-04-17 13:42 40.90381 27.92448 10670 ft 351 kts 78°
2026-04-17 13:42 40.90869 27.95542 10518 ft 335 kts 78°
2026-04-17 13:42 40.91334 27.98496 10389 ft 320 kts 78°
2026-04-17 13:43 40.91776 28.01314 10268 ft 306 kts 78°
2026-04-17 13:43 40.92199 28.04012 10156 ft 293 kts 78°
2026-04-17 13:43 40.92600 28.06569 9976 ft 283 kts 79°
2026-04-17 13:43 40.92995 28.09103 9621 ft 279 kts 79°
2026-04-17 13:44 40.93390 28.11640 9195 ft 277 kts 78°
2026-04-17 13:44 40.93773 28.14100 8816 ft 274 kts 78°
2026-04-17 13:44 40.94156 28.16564 8413 ft 272 kts 78°
2026-04-17 13:44 40.94538 28.19023 8008 ft 271 kts 78°
2026-04-17 13:45 40.94915 28.21456 7615 ft 269 kts 78°
2026-04-17 13:45 40.95289 28.23872 7243 ft 267 kts 78°
2026-04-17 13:45 40.95654 28.26236 7008 ft 254 kts 78°
2026-04-17 13:45 40.95996 28.28447 6867 ft 237 kts 78°
2026-04-17 13:46 40.96314 28.30511 6691 ft 222 kts 78°
2026-04-17 13:46 40.96620 28.32495 6222 ft 223 kts 78°
2026-04-17 13:46 40.96927 28.34496 5766 ft 221 kts 78°
2026-04-17 13:46 40.97233 28.36485 5361 ft 218 kts 77°
2026-04-17 13:47 40.97403 28.38470 4955 ft 216 kts 91°
2026-04-17 13:47 40.97104 28.40415 4887 ft 222 kts 107°
2026-04-17 13:47 40.96565 28.42311 4872 ft 222 kts 107°
2026-04-17 13:47 40.96039 28.44239 4804 ft 223 kts 106°
2026-04-17 13:48 40.95481 28.46139 4742 ft 222 kts 112°
2026-04-17 13:48 40.94694 28.47920 4680 ft 224 kts 117°
2026-04-17 13:48 40.93881 28.49662 4609 ft 223 kts 117°
2026-04-17 13:48 40.93071 28.51419 4551 ft 223 kts 117°
2026-04-17 13:49 40.92260 28.53179 4487 ft 224 kts 117°
2026-04-17 13:49 40.91446 28.54949 4427 ft 227 kts 117°
2026-04-17 13:49 40.90631 28.56745 4352 ft 227 kts 114°
2026-04-17 13:49 40.89933 28.58571 4297 ft 218 kts 112°
2026-04-17 13:50 40.89271 28.60298 4161 ft 209 kts 112°
2026-04-17 13:50 40.88619 28.61990 4008 ft 204 kts 112°
2026-04-17 13:50 40.87965 28.63701 3974 ft 210 kts 112°
2026-04-17 13:50 40.87306 28.65419 3972 ft 209 kts 112°
2026-04-17 13:51 40.86959 28.67244 3973 ft 205 kts 84°
2026-04-17 13:51 40.87383 28.68990 3976 ft 202 kts 55°
2026-04-17 13:51 40.88444 28.70195 3976 ft 205 kts 30°
2026-04-17 13:51 40.89725 28.71038 3971 ft 205 kts 29°
2026-04-17 13:52 40.91004 28.71889 3975 ft 206 kts 30°
2026-04-17 13:52 40.92260 28.72737 3969 ft 198 kts 31°
2026-04-17 13:52 40.93463 28.73558 3973 ft 197 kts 31°
2026-04-17 13:52 40.94674 28.74391 3974 ft 195 kts 31°
2026-04-17 13:53 40.95896 28.75231 3973 ft 195 kts 31°
2026-04-17 13:53 40.97159 28.75910 3971 ft 200 kts 18°
2026-04-17 13:53 40.98551 28.76159 3971 ft 204 kts
2026-04-17 13:53 40.99938 28.76172 3968 ft 196 kts
2026-04-17 13:54 41.02580 28.76114 3992 ft 183 kts
2026-04-17 13:54 41.03794 28.76086 3969 ft 165 kts
2026-04-17 13:55 41.05884 28.76053 3997 ft 154 kts
2026-04-17 13:55 41.06981 28.76038 3972 ft 158 kts